TimeMDT,TemperatureF,Dew PointF,Humidity,Sea Level PressureIn,VisibilityMPH,Wind Direction,Wind SpeedMPH,Gust SpeedMPH,PrecipitationIn,Events,Conditions,WindDirDegrees,DateUTC
12:52 AM,26.1,12.9,58,30.18,10.0,NE,4.6,-,N/A,,Clear,50,2013-04-04 06:52:00
1:52 AM,27.0,15.1,61,30.15,10.0,Calm,Calm,-,N/A,,Clear,0,2013-04-04 07:52:00
2:52 AM,24.1,16.0,71,30.17,10.0,Variable,3.5,-,N/A,,Clear,0,2013-04-04 08:52:00
3:52 AM,19.9,12.9,74,30.18,10.0,Calm,Calm,-,N/A,,Clear,0,2013-04-04 09:52:00
4:52 AM,18.0,10.9,74,30.20,10.0,Calm,Calm,-,N/A,,Clear,0,2013-04-04 10:52:00
5:52 AM,19.9,10.0,65,30.22,10.0,Calm,Calm,-,N/A,,Clear,0,2013-04-04 11:52:00
6:52 AM,15.1,8.1,74,30.27,10.0,ESE,3.5,-,N/A,,Clear,110,2013-04-04 12:52:00
7:52 AM,25.0,15.1,66,30.24,10.0,Calm,Calm,-,N/A,,Clear,0,2013-04-04 13:52:00
8:52 AM,36.0,19.0,50,30.23,10.0,Calm,Calm,-,N/A,,Clear,0,2013-04-04 14:52:00
9:52 AM,45.0,19.0,36,30.22,10.0,Calm,Calm,-,N/A,,Clear,0,2013-04-04 15:52:00
10:52 AM,50.0,18.0,28,30.19,10.0,Variable,6.9,-,N/A,,Clear,0,2013-04-04 16:52:00
11:52 AM,54.0,16.0,22,30.17,10.0,North,5.8,-,N/A,,Clear,10,2013-04-04 17:52:00
12:52 PM,57.0,12.0,17,30.15,10.0,NNW,8.1,-,N/A,,Clear,340,2013-04-04 18:52:00
1:52 PM,57.9,9.0,14,30.11,10.0,Calm,Calm,-,N/A,,Clear,0,2013-04-04 19:52:00
2:52 PM,61.0,10.9,14,30.08,10.0,Variable,5.8,17.3,N/A,,Clear,0,2013-04-04 20:52:00
3:52 PM,63.0,10.0,13,30.07,10.0,South,9.2,20.7,N/A,,Clear,190,2013-04-04 21:52:00
4:52 PM,63.0,10.9,13,30.06,10.0,SSE,4.6,16.1,N/A,,Clear,160,2013-04-04 22:52:00
5:52 PM,62.1,10.0,13,30.05,10.0,South,8.1,18.4,N/A,,Clear,190,2013-04-04 23:52:00
6:52 PM,60.1,10.0,14,30.08,10.0,SSW,16.1,-,N/A,,Clear,200,2013-04-05 00:52:00
7:52 PM,52.0,9.0,18,30.07,10.0,SSW,11.5,-,N/A,,Clear,210,2013-04-05 01:52:00
8:52 PM,50.0,10.0,20,30.05,10.0,SSW,10.4,-,N/A,,Clear,210,2013-04-05 02:52:00
9:52 PM,46.9,10.9,23,30.04,10.0,SSW,13.8,-,N/A,,Clear,200,2013-04-05 03:52:00
10:52 PM,45.0,12.0,26,30.03,10.0,SW,9.2,-,N/A,,Clear,220,2013-04-05 04:52:00
11:52 PM,39.0,10.0,30,30.04,10.0,SSW,5.8,-,N/A,,Clear,210,2013-04-05 05:52:00